Hourly Data Report for May 12, 2012

All times are specified in Local Standard Time (LST). Add 1 hour to adjust for Daylight Saving Time where and when it is observed.

PENTICTON A
BRITISH COLUMBIA

49°27'45.000" N
119°36'08.000" W
344.40 m
1126146
71889
YYF

Download Data

Hourly Data (May 2012)
Hourly Data Report for May 12, 2012
Temp Definition
°C
Dew Point Temp Definition
°C
Rel Hum Definition
%
Wind Dir Definition
10's deg

Wind Spd Definition
km/h
Visibility Definition
km
Stn Press Definition
kPa
Hmdx Definition


Wind Chill Definition


Weather Definition


TIME
00:00 Legend Double Dagger 6.2 -2.2 55   0 10.0 98.36     LegendNANA
01:00 Legend Double Dagger 3.8 -2.6 63 24 5 10.0 98.39     Clear
02:00 Legend Double Dagger 3.1 -2.0 69 35 5 10.0 98.43     LegendNANA
03:00 Legend Double Dagger 2.2 -2.7 70 33 11 10.0 98.49     LegendNANA
04:00 Legend Double Dagger 0.9 -2.7 77   0 10.0 98.53     Clear
05:00 Legend Double Dagger 1.7 -2.8 72   0 10.0 98.55     LegendNANA
06:00 Legend Double Dagger 5.6 0.2 68   0 10.0 98.60     LegendNANA
07:00 Legend Double Dagger 9.0 -1.4 48 5 4 10.0 98.65     Clear
08:00 Legend Double Dagger 11.1 -1.3 42 8 5 10.0 98.59     LegendNANA
09:00 Legend Double Dagger 13.4 -0.9 37 2 7 10.0 98.54     LegendNANA
10:00 Legend Double Dagger 14.3 -0.5 36 0 8 10.0 98.49     Mainly Clear
11:00 Legend Double Dagger 16.1 -0.1 33 34 8 10.0 98.41     LegendNANA
12:00 Legend Double Dagger 19.4 2.4 32   0 10.0 98.31     LegendNANA
13:00 Legend Double Dagger 22.1 -1.7 20 17 27 10.0 98.21     Mainly Clear
14:00 Legend Double Dagger 23.4 0.7 22 17 22 10.0 98.14     LegendNANA
15:00 Legend Double Dagger 23.7 0.3 21 18 24 10.0 98.06     LegendNANA
16:00 Legend Double Dagger 24.1 -0.1 20 18 22 10.0 98.00     Mainly Clear
17:00 Legend Double Dagger 23.6 -0.5 20 18 25 10.0 97.95     LegendNANA
18:00 Legend Double Dagger 19.4 4.1 36 18 21 10.0 97.94     LegendNANA
19:00 Legend Double Dagger 17.6 2.9 37 18 17 10.0 97.93     Clear
20:00 Legend Double Dagger 19.8 -0.7 25 18 19 10.0 97.98     LegendNANA
21:00 Legend Double Dagger 18.1 -0.1 29 14 12 10.0 98.04     LegendNANA
22:00 Legend Double Dagger 15.1 1.0 38 26 5 10.0 98.07     Clear
23:00 Legend Double Dagger 14.0 0.7 40 21 7 10.0 98.11     LegendNANA

Notes on Data Quality.

Legend

  • E = Estimated
  • M = Missing
  • NA = Not Available
  • ‡ = Partner data that is not subject to review by the National Climate Archives
Date modified: